STARLINK-1741, 46567

Orbit data source: Space-Track

STARLINK-1741, 46567 is a payload satellite owned by SpaceX/Seattle (US) in LEO that was launched on Tue, 06 Oct 2020 UTC via an FALCON 9 launch vehicle from the Air Force Eastern Test Range (AFETR). Payload-class satellites include a variety of spacecraft equipped with specific instruments for various scientific and technological missions. These include communications satellites like Starlink; space stations such as the ISS; scientific satellites like the Hubble; Earth observation satellites from companies like Planet Labs, Umbra, and HawkEye 360; GPS; miniature CubeSats for education and research; and military/defense satellites.

Loading next visibility...
Identifier
46567, 2020-070AM
Orbit
LEO
Country
Flag of USUS
Related business
Manufacturer
SpaceX/Seattle
Mission
Partially operational Commercial Communications
Bus & Motor
STARLINK, Unknown motor
Mass
260 kg wet, ~248 kg dry
Launch date (UTC)
2020-10-06 (5 years ago)
Launch vehicle
FALCON 9
Launch site
Air Force Eastern Test Range (AFETR)
Object type
Payload
Rocket body
Debris
Shape & HBR
Box + 1 Pan, 10.1 m
Radar Cross Section
13.562 m², Large (>1 m²)

Expand to show TLE details & history
Last TLE update: 7 hours ago

TLE from 7 hours ago
0 STARLINK-1741
1 46567U 20070AM  25347.00009259  .00163657  00000-0  37790-2 0  9999
2 46567  53.0506 175.3533 0008776 156.3608 124.1249 15.41415998  5873
Epoch: 2025-12-13T00:00Z
TLE epoch observation values (Epoch: 2025-12-13T00:00:07.999Z)
Latitude
-51.93737°
Longitude
20.59177°
Altitude
463.287 km
Speed
7.633 km/s
True Right ascension
06h 50m 14s
True Declination
-51° 45' 47"
Sunlit
Object was in daylight at epoch
Visualization orbit readout
Latitude
Unknown
Longitude
Unknown
Altitude
Unknown
Speed
Unknown
Apparent Right ascension
Unknown
Apparent Declination
Unknown
Sunlit
N/A
Visualization observer readout
Local Sidereal Time
05:22:29
Azimuth
Unknown
Elevation
Unknown
Doppler factor
Unknown
Orbital elements
Apogee altitude
448.19 km
Perigee altitude
436.219 km
Semi-major axis
6,820.342 km
Eccentricity
0.00088
Inclination
53.0506°
RAAN
175.3533°
Arg. of periapsis
156.3608°
True anomaly
124.2081°
Mean anomaly
124.1249°
Eccentric anomaly
124.1665°
Mean motion
3.85331 °/min
Orbital period
93.43 mins
BSTAR
0.003779
Loading maneuver chart data...
Computing Atmospheric mass density...
Loading historical data...
Loading historical data...
Loading historical data...
Loading historical data...
Loading historical data...
Loading historical data...
Loading historical data...

Documentation

Showing up to 5 results
|